FW6591 Weather Reports


Display with metric or nautical units.
time (UTC)temp
F
wind
direction
speed
MPH
gust
MPH
rain 1hr
in
rain 24hr
in
rain mn
in
humidity
%
barometer
mb
20260502163038 68 352 0.0 4.0 0.00 0.00 0.00 36 1023.1
20260502161539 69 0 0.0 2.0 0.00 0.00 0.00 37 1022.8
20260502151553 74 228 5.0 8.0 0.00 0.00 0.00 29 1022.3
20260502123039 78 195 2.0 5.0 0.00 0.00 0.00 23 1021.4
20260502121549 78 154 3.0 8.0 0.00 0.00 0.00 21 1021.4
20260502114544 77 276 2.0 9.0 0.00 0.00 0.00 25 1021.5
20260502113048 76 227 2.0 8.0 0.00 0.00 0.00 24 1021.6
20260502111551 76 257 3.0 10.0 0.00 0.00 0.00 25 1021.9
20260502110048 76 227 6.0 11.0 0.00 0.00 0.00 23 1022.2
20260502104553 75 299 3.0 8.0 0.00 0.00 0.00 23 1022.2
20260502103046 75 226 4.0 9.0 0.00 0.00 0.00 26 1022.4
20260502101540 74 167 5.0 8.0 0.00 0.00 0.00 28 1022.5
20260502100109 74 217 3.0 11.0 0.00 0.00 0.00 28 1022.5
20260502070046 65 13 4.0 10.0 0.00 0.00 0.00 40 1023.3
20260502064541 63 14 3.0 8.0 0.00 0.00 0.00 45 1023.1
20260502063055 60 352 1.0 4.0 0.00 0.00 0.00 49 1023.1
20260502061542 60 13 0.0 4.0 0.00 0.00 0.00 52 1023.0
20260502060050 60 50 2.0 8.0 0.00 0.00 0.00 52 1022.9
20260502054546 55 345 0.0 2.0 0.00 0.00 0.00 58 1023.0
20260502053045 54 0 1.0 2.0 0.00 0.00 0.00 60 1022.6
20260502051607 53 0 0.0 3.0 0.00 0.00 0.00 61 1022.6
20260502050047 51 0 0.0 2.0 0.00 0.00 0.00 63 1022.5
20260502044541 51 0 0.0 2.0 0.00 0.00 0.00 64 1022.5
20260502043050 52 0 0.0 2.0 0.00 0.00 0.00 63 1022.4
20260502041545 53 257 0.0 2.0 0.00 0.00 0.00 62 1022.2
20260502040051 54 44 0.0 4.0 0.00 0.00 0.00 60 1022.4
20260502034552 56 30 1.0 5.0 0.00 0.00 0.00 57 1022.3
20260502033050 55 172 2.0 7.0 0.00 0.00 0.00 60 1022.3
20260502031606 52 0 0.0 2.0 0.00 0.00 0.00 64 1021.8
20260502030046 53 0 0.0 2.0 0.00 0.00 0.00 62 1021.8
20260502024551 52 239 0.0 3.0 0.00 0.00 0.00 62 1021.4
20260502023045 53 0 0.0 2.0 0.00 0.00 0.00 60 1021.2
20260502021541 54 9 1.0 4.0 0.00 0.00 0.00 59 1021.1
20260502020044 53 229 2.0 4.0 0.00 0.00 0.00 61 1020.9
20260502014540 52 9 2.0 3.0 0.00 0.00 0.00 63 1021.0
20260502013040 51 0 0.0 2.0 0.00 0.00 0.00 66 1021.4
20260502011549 52 0 0.0 2.0 0.00 0.00 0.00 65 1021.4
20260502010047 54 0 0.0 0.0 0.00 0.00 0.00 61 1021.3
20260502004536 56 0 0.0 3.0 0.00 0.00 0.00 57 1021.5
20260502003042 59 300 4.0 8.0 0.00 0.00 0.00 51 1021.4
20260502001544 57 277 3.0 7.0 0.00 0.00 0.00 56 1021.9
20260502000044 56 247 3.0 7.0 0.00 0.00 0.00 58 1021.9
20260501234554 54 285 1.0 3.0 0.00 0.00 0.00 63 1021.9
20260501233043 52 0 0.0 2.0 0.00 0.00 0.00 67 1021.5
20260501231557 53 0 0.0 2.0 0.00 0.00 0.00 65 1021.3
20260501230045 55 360 1.0 3.0 0.00 0.00 0.00 63 1021.2
20260501224544 56 0 0.0 2.0 0.00 0.00 0.00 60 1021.2
20260501223044 58 0 0.0 2.0 0.00 0.00 0.00 56 1021.4
20260501221542 60 0 0.0 4.0 0.00 0.00 0.00 53 1021.3
20260501220051 61 151 2.0 5.0 0.00 0.00 0.00 52 1021.5
20260501214559 61 186 3.0 10.0 0.00 0.00 0.00 51 1021.6
20260501213051 63 167 2.0 13.0 0.00 0.00 0.00 49 1021.5
20260501211545 61 360 1.0 8.0 0.00 0.00 0.00 51 1021.4
20260501210044 60 12 1.0 5.0 0.00 0.00 0.00 53 1021.3
20260501204539 62 17 0.0 2.0 0.00 0.00 0.00 50 1021.5
20260501203040 64 49 0.0 6.0 0.00 0.00 0.00 47 1021.0
20260501201546 65 9 7.0 15.0 0.00 0.00 0.00 45 1021.0
20260501200044 66 316 8.0 16.0 0.00 0.00 0.00 44 1020.5
20260501194556 66 336 11.0 19.0 0.00 0.00 0.00 44 1020.3
20260501193043 65 340 5.0 11.0 0.00 0.00 0.00 45 1020.0
20260501191538 65 320 3.0 10.0 0.00 0.00 0.00 43 1020.2
20260501190040 64 346 4.0 10.0 0.00 0.00 0.00 43 1019.9
20260501184539 62 311 1.0 5.0 0.00 0.00 0.00 47 1019.8
20260501183044 61 0 0.0 2.0 0.00 0.00 0.00 47 1019.6
20260501181543 61 0 0.0 2.0 0.00 0.00 0.00 45 1019.6
20260501180044 61 0 0.0 3.0 0.00 0.00 0.00 45 1019.5
20260501174601 61 332 1.0 3.0 0.00 0.00 0.00 46 1020.0
20260501173100 61 348 1.0 4.0 0.00 0.00 0.00 48 1019.9
20260501171553 60 343 1.0 3.0 0.00 0.00 0.00 50 1019.6